Back to catalog

STARLINK-2732

AliveCommunicationsVLEO
NORAD 48646·PAYLOAD·🇺🇸 United States

Launched May 26, 2021 from Cape Canaveral Space Force Station

Loading…

Next Passes (next 24 hours)

TLE

FreshSource: CelesTrak SupGP

Epoch: Sep 14, 2026, 12:58 UTC

1 48646C 21044J   26257.54076389  .00031625  00000+0  10168-2 0  2574
2 48646  53.1582 315.0176 0001084  80.6076  66.6766 15.31693481    16

Track STARLINK-2732 in real time with AllMySat

Download on the App Store